Location: Newark
(23.3970°S, 47.6010°W)
Time: 08:57:35
(UTC+00:00)

Tiros 1 despin weight - Pass Details

Date: 25 February 2020
Orbit: 593 x 642 km, 48.2° (Epoch: 08 April)

Event Time Altitude Azimuth Distance (km) Brightness Sun altitude
Rises 20:03:38 0° 207° (SSW) 2,965 ? 21.8°
Reaches altitude 10° 20:06:49 10° 185° (S) 2,050 ? 21.1°
Maximum altitude 20:09:47 16° 146° (SE) 1,663 ? 20.4°
Drops below altitude 10° 20:12:44 10° 107° (ESE) 2,035 ? 19.7°
Sets 20:15:51 0° 85° (E) 2,931 ? 19.0°
